User: anonymous   Login
Location: Berville
(49.1893°N, 2.0748°E)
Time: 18:54:20
(UTC+00:00)
Language:

Cosmos 836 Rocket - Orbit

View from above orbital plane
View from above orbital plane
View from above satellite
View from above satellite

Ground track
Ground track

The orbit data is extracted from the following two-line orbital elements,

1 08924U 76061B   23150.26808248  .00000211  00000-0  79234-4 0  9995
2 08924  74.0589  72.2435 0013816 157.8137   7.9793 14.37505511455698
Epoch (UTC): 30 May 2023 06:26:02
Eccentricity: 0.0013816
inclination: 74.0589°
perigee height: 757 km
apogee height: 776 km
right ascension of ascending node: 72.2435°
argument of perigee: 157.8137°
revolutions per day: 14.37505511
mean anomaly at epoch: 7.9793°
orbit number at epoch: 45569

The dashed part of the orbit path shows where the satellite is in the earth's shadow,  

DLR